Terminal Aerodrome Forecast
Issued by NWS Chicago, IL

Home | Current Version | Previous Version | Graphics & Text | Print | Product List | Glossary On
Versions: 1 2 3 4 5 6 7 8 9 10 11 12 13 14 15 16 17 18 19 20 21 22 23 24 25 26 27 28 29 30 31 32 33 34
000
FTUS43 KLOT 191100
TAFRFD
TAF
KRFD 191130Z 1912/2012 18013KT P6SM -SHSN BKN030 OVC060
     FM191400 27014G20KT P6SM -SHSN SCT025 OVC035
     FM191900 28017G26KT P6SM OVC035
     FM200000 28013G23KT P6SM BKN040
     FM200500 27012KT P6SM BKN200=

USA.gov is the U.S. government's official web portal to all federal, state and local government web resources and services.